Weather Roundup
Issued by NWS Chicago, IL

Home | Current Version | Previous Version | Graphics & Text | Print | Product List | Glossary On
Versions: 1 2 3 4 5 6 7 8 9 10 11 12 13 14 15 16 17 18 19 20 21 22 23 24 25 26 27 28 29 30 31 32 33 34 35 36 37 38 39 40 41 42 43 44 45 46 47 48 49 50
000
NZUS59 KLOT 300810
HRRLOT

CHICAGO AREA WEATHER ROUNDUP
NATIONAL WEATHER SERVICE CHICAGO/ROMEOVILLE IL
200 AM CST FRI JAN 30 2015

NOTE: "FAIR" INDICATES FEW OR NO CLOUDS BELOW 12,000 FEET WITH NO
SIGNIFICANT WEATHER AND/OR OBSTRUCTIONS TO VISIBILITY.

* THESE STATIONS ARE NOT UNDER NWS QUALITY CONTROL. THEY ALSO MAY NOT
  REPORT WEATHER SUCH AS PRECIPITATION OR FOG.

ILZ005-006-012>014-019>023-300900-
NORTHEAST ILLINOIS

CITY           SKY/WX    TMP DP  RH WIND       PRES   REMARKS
OHARE          CLOUDY    26  12  55 N12       30.37R WCI  16
MIDWAY         CLOUDY    30  15  53 N16       30.37R WCI  19
AURORA         MOCLDY    27  16  63 N14       30.39R WCI  16
LANSING*       CLOUDY    29  17  63 N15G22    30.36R WCI  17
JOLIET*        PTCLDY    27  19  71 N8        30.39R WCI  19
WAUKEGAN       CLOUDY    24   8  50 N9        30.37R WCI  14
DUPAGE AIRPORT CLOUDY    27  16  63 N15       30.38R WCI  15
WHEELING       CLOUDY    26   9  48 N15       30.39R WCI  14
KANKAKEE*      CLEAR     30  19  62 NW10      30.36R WCI  21
MORRIS*        PTCLDY    28  19  71 N9        30.38R WCI  19
LEWIS AIRPORT* FLURRIES  28  18  66 N15G21    30.37R WCI  16
NORTHERLY IS     N/A     28  13  53 N21         N/A  WCI  15
$$

WIZ051-052-058>065-066-070>072-300900-
SOUTHEAST WISCONSIN

CITY           SKY/WX    TMP DP  RH WIND       PRES   REMARKS
MILWAUKEE      MOCLDY    25  11  55 NW16      30.38R WCI  12
KENOSHA*       CLOUDY    24   9  52 N12       30.38R WCI  13
RACINE*        CLOUDY    25   8  48 NW10      30.39R WCI  15
BURLINGTON     CLOUDY    22   9  59 N7        30.39R WCI  13
WAUKESHA       CLOUDY    21   9  58 N8        30.39R WCI  12
WEST BEND      PTCLDY    21  10  63 NW12      30.38R WCI   9
$$

INZ001>003-010>013-019-020-300900-
NORTHWEST INDIANA

CITY           SKY/WX    TMP DP  RH WIND       PRES   REMARKS
GARY*          CLOUDY    31  13  48 N20G28    30.37R WCI  18
MICHIGAN CITY* NOT AVBL
RENSSELAER*    NOT AVBL
VALPARAISO     CLOUDY    28  17  63 N15       30.32R WCI  16
$$

LMZ740>746-300900-
SOUTHERN LAKE MICHIGAN

STATION/POSITION TIME  SKY/WX   TEMP WIND        PRES    VSBY
                                AIR  DIR/SP/G
                 (UTC)          (F)  (DEG/KT/KT) (MB)    (MI)
HARRISON CRIB    0800            27  350/ 28/ 32   N/A
BURNHAM HARBOR   0800            27   90/ 12/ 23   N/A
CALUMET HARBOR   0800            28  330/ 16/ 25   N/A
BURNS HARBOR     NOT AVBL
MICHIGAN CITY    0800            29  340/ 28/ 31   N/A
$$

ABBREVIATIONS USED IN REMARKS
   TC - TEMPERATURE IN CELSIUS
  WCI - WIND CHILL INDEX
   HX - HEAT INDEX
  VSB - VISIBILITY
$$


USA.gov is the U.S. government's official web portal to all federal, state and local government web resources and services.